Tracking 19795 objects as of 18-Jul-2019
HD Live streaming from Space Station
objects crossing your sky now

METEOR 2-17 DEB

Track METEOR 2-17 DEB now!
10-day predictions


NORAD ID: 31401
Int'l Code: 1988-005W
Perigee: 900.9 km
Apogee: 916.7 km
Inclination: 82.5 °
Period: 103.0 minutes
Semi major axis: 7279 km
RCS: 0.0104 m2 (small)
Launch date: January 30, 1988
Source: Commonwealth of Independent States (former USSR) (CIS)
Launch site: PLESETSK MISSILE AND SPACE COMPLEX (PKMTR)

Note: This is SATELLITE DEBRIS
aabbcc
Your satellite tracking list
Your tracking list is empty




NASA's NSSDC Master Catalog

Two Line Element Set (TLE):
1 31401U 88005W   19195.13744647  .00000925  00000-0  64457-3 0  9996
2 31401  82.5331 141.8068 0010835 249.4919 110.5086 13.97736764648086
Source of the keplerian elements: AFSPC